Location: Limerick
(52.6800°N, 8.6400°W)
Time: 19:50:50
(UTC+01:00)

Sapphire - Visible Passes

Search period start: 02 September 2014 00:00
Search period end: 12 September 2014 00:00
Orbit: 787 x 796 km, 67.1° (Epoch: 02 September)

Date Brightness Start Highest point End Pass type
(mag) Time Alt. Az. Time Alt. Az. Time Alt. Az.
02 Sep ? 00:18:17 10° NNW 00:23:05 30° NNE 00:25:26 22° ENE visible
02 Sep ? 02:01:39 10° NW 02:06:08 61° NW 02:06:08 61° NW visible
02 Sep ? 03:46:16 10° WNW 03:46:50 12° WNW 03:46:50 12° WNW visible
02 Sep ? 22:03:32 10° NW 22:07:11 18° N 22:10:50 10° NE visible
02 Sep ? 23:47:50 10° NNW 23:52:26 27° NNE 23:55:15 18° ENE visible
03 Sep ? 01:31:12 10° NW 01:35:58 66° NNW 01:35:58 66° NNW visible
03 Sep ? 03:15:23 10° WNW 03:16:40 15° WNW 03:16:40 15° WNW visible
03 Sep ? 21:32:45 10° NW 21:36:25 18° N 21:40:05 10° NE visible
03 Sep ? 23:17:21 10° NNW 23:21:45 24° NNE 23:25:08 14° ENE visible
04 Sep ? 01:00:45 10° NW 01:05:51 63° NNE 01:05:51 63° NNE visible
04 Sep ? 02:44:39 10° NW 02:46:33 19° WNW 02:46:33 19° WNW visible
04 Sep ? 21:01:55 10° NW 21:05:39 18° N 21:09:23 10° NE visible
04 Sep ? 22:46:51 10° NNW 22:51:02 22° NNE 22:55:05 11° ENE visible
05 Sep ? 00:30:20 10° NW 00:35:40 53° NE 00:35:47 53° NE visible
05 Sep ? 02:14:01 10° NW 02:16:30 25° WNW 02:16:30 25° WNW visible
05 Sep ? 22:16:19 10° NNW 22:20:19 20° NNE 22:24:18 10° ENE visible
05 Sep ? 23:59:54 10° NNW 00:05:07 44° NE 00:05:47 42° ENE visible
06 Sep ? 01:43:26 10° NW 01:46:29 31° WNW 01:46:29 31° WNW visible
06 Sep ? 21:45:44 10° NW 21:49:34 19° N 21:53:24 10° NE visible
06 Sep ? 23:29:28 10° NNW 23:34:32 37° NE 23:35:48 33° ENE visible
07 Sep ? 01:12:55 10° NW 01:16:31 40° WNW 01:16:31 40° WNW visible
07 Sep ? 21:15:05 10° NW 21:18:49 18° N 21:22:32 10° NE visible
07 Sep ? 22:59:02 10° NNW 23:03:55 32° NNE 23:05:52 25° ENE visible
08 Sep ? 00:42:25 10° NW 00:46:35 53° NW 00:46:35 53° NW visible
08 Sep ? 02:27:14 10° WNW 02:27:18 10° WNW 02:27:18 10° WNW visible
08 Sep ? 20:44:23 10° NW 20:48:03 18° N 20:51:42 10° NE visible
08 Sep ? 22:28:36 10° NNW 22:33:16 28° NNE 22:35:57 19° ENE visible
09 Sep ? 00:11:58 10° NW 00:16:41 67° NNW 00:16:41 67° NNW visible
09 Sep ? 01:56:16 10° WNW 01:57:24 14° WNW 01:57:24 14° WNW visible
09 Sep ? 21:58:08 10° NNW 22:02:35 25° NNE 22:06:05 14° ENE visible
09 Sep ? 23:41:31 10° NW 23:46:48 69° NE 23:46:48 69° NE visible
10 Sep ? 01:25:29 10° NW 01:27:31 19° WNW 01:27:31 19° WNW visible
10 Sep ? 21:27:38 10° NNW 21:31:53 22° NNE 21:36:07 10° ENE visible
10 Sep ? 23:11:05 10° NW 23:16:27 56° NE 23:16:57 54° ENE visible
11 Sep ? 00:54:49 10° NW 00:57:41 26° WNW 00:57:41 26° WNW visible
11 Sep ? 20:57:07 10° NNW 21:01:10 21° NNE 21:05:13 10° ENE visible
11 Sep ? 22:40:39 10° NNW 22:45:55 46° NE 22:47:08 40° ENE visible
